This demonstration page uses our WeatherBlox Daily Observations layout. Learn more.

Left ArrowRight Arrow

38.89511, -77.03637

Hourly Observations for May 19, 2017

Temp ( °F °C ) Dew Point ( °F °C ) Humidity (%) Winds ( mph kmh ) Pressure ( in mb ) Visibility ( mi km ) Precip ( " mm )
12:52 am 00:52 Mostly Cloudy 71 21.7 69 20.6 94 94 S 7 11 29.95 1014 10 16 0.00 0.00
1:52 am 01:52 Partly Cloudy 72 22.2 69 20.6 91 91 S 10 17 29.93 1014 10 16 0.00 0.00
2:52 am 02:52 Partly Cloudy 71 21.7 69 20.6 94 94 S 9 15 29.94 1014 10 16 0.00 0.00
3:52 am 03:52 Clear 72 22.2 68 20 87 87 S 8 13 29.94 1014 10 16 0.00 0.00
4:52 am 04:52 Mostly Clear 72 22.2 68 20 87 87 S 9 15 29.95 1014 10 16 0.00 0.00
5:52 am 05:52 Partly Cloudy 70 21.1 68 20 93 93 S 8 13 29.97 1015 10 16 0.00 0.00
6:52 am 06:52 Mostly Sunny 71 21.7 69 20.6 94 94 S 7 11 29.99 1016 10 16 0.00 0.00
7:52 am 07:52 Mostly Sunny 75 23.9 70 21.1 84 84 SSW 7 11 30.00 1016 10 16 0.00 0.00
8:52 am 08:52 Mostly Sunny 75 23.9 70 21.1 84 84 S 12 19 29.99 1016 10 16 0.00 0.00
9:52 am 09:52 Mostly Sunny 78 25.6 71 21.7 79 79 S 12 19 29.99 1016 10 16 0.00 0.00
10:52 am 10:52 Mostly Sunny 84 28.9 71 21.7 65 65 W 12 19 29.98 1015 10 16 0.00 0.00
11:52 am 11:52 Mostly Sunny 89 31.7 66 18.9 47 47 NW 12 19 29.97 1015 10 16 0.00 0.00
12:52 pm 12:52 Partly Cloudy 89 31.7 65 18.3 45 45 W 12 19 29.96 1015 10 16 0.00 0.00
1:52 pm 13:52 Partly Cloudy 91 32.8 65 18.3 42 42 W 12 19 29.95 1014 10 16 0.00 0.00
2:52 pm 14:52 Mostly Cloudy 90 32.2 65 18.3 44 44 WNW 12 19 29.94 1014 10 16 0.00 0.00
3:52 pm 15:52 Mostly Cloudy 89 31.7 67 19.4 48 48 S 10 17 29.91 1013 10 16 0.00 0.00
4:52 pm 16:52 Mostly Cloudy 88 31.1 69 20.6 54 54 S 14 22 29.91 1013 10 16 0.00 0.00
5:52 pm 17:52 Mostly Cloudy 87 30.6 68 20 53 53 S 13 20 29.91 1013 10 16 0.00 0.00
5:55 pm 17:55 Mostly Cloudy with Thunderstorms 87 30.6 68 20 53 53 SW 16 26 29.91 1013 10 16 0.00 0.00
6:12 pm 18:12 Cloudy with Thunderstorms 87 30.6 69 20.6 55 55 SSW 13 20 29.91 1013 10 16 0.00 0.00
6:28 pm 18:28 Cloudy with Thunderstorms 87 30.6 68 20 53 53 SW 15 24 29.91 1013 10 16 0.00 0.00
6:52 pm 18:52 Cloudy with Thunderstorms 84 28.9 65 18.3 53 53 WSW 15 24 29.93 1014 10 16 0.00 0.00
7:11 pm 19:11 Cloudy 83 28.3 65 18.3 55 55 SW 7 11 29.94 1014 10 16 0.00 0.00
7:26 pm 19:26 Cloudy 82 27.8 65 18.3 56 56 Calm 29.97 1015 10 16 0.00 0.00
7:52 pm 19:52 Cloudy 80 26.7 67 19.4 64 64 NE 10 17 29.97 1015 10 16 0.00 0.00
8:52 pm 20:52 Cloudy 76 24.4 67 19.4 74 74 S 7 11 29.98 1015 10 16 0.00 0.00
9:34 pm 21:34 Cloudy 74 23.3 66 18.9 76 76 Calm 30.00 1016 10 16 0.00 0.00
9:52 pm 21:52 Cloudy 74 23.3 67 19.4 79 79 S 7 11 29.99 1016 10 16 0.00 0.00
10:52 pm 22:52 Cloudy 76 24.4 67 19.4 74 74 SW 6 9 30.01 1016 10 16 0.00 0.00
11:52 pm 23:52 Cloudy 74 23.3 69 20.6 85 85 ESE 3 6 30.00 1016 10 16 0.00 0.00

Powered by AerisWeather